Location: Gleizolles
(44.4833°N, 6.7667°E)
Time: 11:40:02
(UTC+00:00)

Altair - Visible Passes

Search period start: 25 June 2024 00:00
Search period end: 05 July 2024 00:00
Orbit: 1502 x 1682 km, 47.2° (Epoch: 24 June)

Date Brightness Start Highest point End Pass type
(mag) Time Alt. Az. Time Alt. Az. Time Alt. Az.
25 Jun 7.5 00:11:14 32° SSW 00:15:32 55° SE 00:24:35 10° ENE visible
25 Jun 7.6 02:10:42 10° WSW 02:19:59 82° NNW 02:29:37 10° ENE visible
25 Jun 8.8 21:48:37 14° ESE 21:48:37 14° ESE 21:51:59 10° E visible
25 Jun 7.6 23:46:33 33° SSW 23:50:24 51° SE 23:59:19 10° ENE visible
26 Jun 7.5 01:45:29 10° WSW 01:54:45 84° NNW 02:04:21 10° ENE visible
26 Jun 8.9 21:23:47 12° ESE 21:23:47 12° ESE 21:26:01 10° E visible
26 Jun 7.6 23:21:43 34° S 23:25:17 48° SE 23:34:03 10° ENE visible
27 Jun 7.5 01:20:17 10° WSW 01:29:32 87° NNW 01:39:05 10° ENE visible
27 Jun 8.9 20:58:44 11° ESE 20:58:44 11° ESE 20:59:35 10° ESE visible
27 Jun 7.7 22:56:38 32° S 23:00:10 44° SE 23:08:47 10° ENE visible
28 Jun 7.4 00:55:05 10° WSW 01:04:19 89° NNW 01:13:49 10° ENE visible
28 Jun 7.7 03:00:09 10° W 03:09:29 77° N 03:19:09 10° E visible
28 Jun 7.7 22:31:07 28° S 22:35:04 41° SE 22:43:30 10° ENE visible
29 Jun 7.4 00:29:53 10° WSW 00:39:07 88° SSE 00:48:35 10° ENE visible
29 Jun 7.7 02:34:56 10° W 02:44:14 76° N 02:53:52 10° E visible
29 Jun 7.8 22:04:35 21° S 22:09:58 38° SE 22:18:13 10° ENE visible
30 Jun 7.3 00:04:42 10° WSW 00:13:54 85° SSE 00:23:20 10° ENE visible
30 Jun 7.7 02:09:42 10° W 02:18:59 76° N 02:28:35 10° E visible
30 Jun 7.9 21:36:53 10° SSW 21:44:52 35° SE 21:52:55 10° ENE visible
30 Jun 7.3 23:39:32 10° WSW 23:48:43 82° SSE 23:58:06 10° ENE visible
01 Jul 7.7 01:44:28 10° W 01:53:43 75° N 02:03:17 10° E visible
01 Jul 7.9 21:12:01 10° SSW 21:19:47 32° SE 21:27:36 10° ENE visible
01 Jul 7.3 23:14:22 10° WSW 23:23:31 79° SSE 23:32:51 10° ENE visible
02 Jul 7.6 01:19:14 10° W 01:28:29 75° N 01:38:00 10° E visible
02 Jul 8.0 20:47:10 10° S 20:54:43 30° SE 21:02:16 10° ENE visible
02 Jul 7.3 22:49:12 10° SW 22:58:21 76° SSE 23:07:37 10° ENE visible
03 Jul 7.6 00:54:00 10° W 01:03:14 76° N 01:12:43 10° E visible
03 Jul 7.6 02:59:00 10° WNW 03:08:21 87° SSW 03:18:01 10° ESE visible
03 Jul 8.1 20:22:22 10° S 20:29:39 27° SE 20:36:54 10° ENE visible
03 Jul 7.3 22:24:04 10° SW 22:33:10 72° SSE 22:42:24 10° ENE visible
04 Jul 7.6 00:28:47 10° W 00:37:59 76° N 00:47:27 10° E visible
04 Jul 7.5 02:33:49 10° WNW 02:43:08 90° NNE 02:52:46 10° ESE visible
04 Jul 8.2 19:57:38 10° S 20:04:35 25° SE 20:11:31 10° E visible
04 Jul 7.3 21:58:56 10° SW 22:08:00 68° SSE 22:17:10 10° ENE visible
